Total_Precipitation_Accumulation
0.00 0.00 0.00 0.00 0.00 0.00 0.00 0.00 0.00 0.00 0.01 0.00 0.00 0.01 0.02 0.04 0.13 0.23 0.26 0.24 0.22 0.20 0.17 0.18 0.19 0.20 0.24 0.25 0.28 0.32 0.36 0.41 0.47 0.24 0.12 0.10 0.09 0.06 0.02 0.02 0.02 0.00 0.00
0.02 0.00 0.00 0.00 0.00 0.00 0.00 0.00 0.00 0.01 0.04 0.08 0.10 0.14 0.21 0.40 0.63 0.77 0.71 0.63 0.57 0.52 0.46 0.47 0.45 0.43 0.45 0.36 0.32 0.28 0.25 0.23 0.29 0.28 0.14 0.11 0.09 0.05 0.03 0.03 0.02 0.00 0.00
0.04 0.03 0.01 0.00 0.00 0.00 0.00 0.00 0.00 0.01 0.03 0.15 0.48 0.56 0.57 0.60 0.52 0.46 0.41 0.33 0.27 0.24 0.23 0.24 0.21 0.22 0.22 0.21 0.21 0.23 0.25 0.22 0.23 0.21 0.18 0.15 0.11 0.07 0.05 0.04 0.03 0.02 0.01
0.00 0.00 0.00 0.01 0.02 0.02 0.02 0.01 0.02 0.04 0.09 0.23 0.30 0.20 0.08 0.03 0.03 0.04 0.05 0.06 0.08 0.11 0.13 0.15 0.18 0.23 0.23 0.28 0.32 0.31 0.31 0.32 0.29 0.27 0.25 0.24 0.22 0.21 0.22 0.24 0.23 0.22 0.22
0.00 0.00 0.00 0.00 0.00 0.01 0.03 0.06 0.08 0.11 0.14 0.15 0.13 0.11 0.09 0.05 0.04 0.05 0.05 0.07 0.08 0.11 0.17 0.27 0.31 0.37 0.33 0.28 0.24 0.19 0.23 0.28 0.29 0.31 0.33 0.33 0.34 0.36 0.38 0.42 0.43 0.41 0.35
0.00 0.00 0.00 0.00 0.01 0.02 0.03 0.04 0.05 0.07 0.08 0.09 0.12 0.10 0.09 0.08 0.12 0.10 0.09 0.07 0.11 0.16 0.26 0.25 0.23 0.38 0.30 0.37 0.36 0.38 0.35 0.35 0.35 0.37 0.39 0.39 0.42 0.43 0.42 0.42 0.40 0.33 0.25
0.00 0.00 0.00 0.00 0.01 0.02 0.02 0.03 0.04 0.05 0.05 0.06 0.06 0.05 0.07 0.10 0.28 0.23 0.29 0.16 0.18 0.25 0.32 0.39 0.44 0.47 0.51 0.35 0.38 0.34 0.31 0.31 0.29 0.28 0.31 0.32 0.32 0.27 0.23 0.20 0.17 0.14 0.11
0.00 0.00 0.00 0.01 0.01 0.01 0.02 0.04 0.05 0.06 0.05 0.05 0.08 0.14 0.17 0.30 0.39 0.24 0.27 0.20 0.30 0.40 0.39 0.33 0.27 0.23 0.22 0.17 0.13 0.14 0.16 0.18 0.19 0.19 0.18 0.16 0.12 0.09 0.09 0.10 0.11 0.12 0.10
0.01 0.02 0.02 0.01 0.02 0.05 0.08 0.09 0.07 0.07 0.10 0.10 0.11 0.11 0.11 0.16 0.29 0.19 0.18 0.12 0.13 0.13 0.11 0.10 0.11 0.10 0.19 0.16 0.14 0.15 0.13 0.12 0.11 0.11 0.12 0.13 0.13 0.13 0.11 0.11 0.10 0.10 0.06
0.01 0.01 0.02 0.03 0.04 0.05 0.04 0.05 0.06 0.08 0.10 0.08 0.11 0.09 0.13 0.07 0.17 0.12 0.08 0.03 0.05 0.06 0.08 0.12 0.19 0.13 0.12 0.09 0.08 0.09 0.10 0.10 0.09 0.09 0.08 0.06 0.03 0.03 0.02 0.03 0.06 0.10 0.09
0.01 0.02 0.02 0.02 0.02 0.02 0.03 0.04 0.05 0.05 0.05 0.04 0.03 0.02 0.02 0.05 0.07 0.08 0.07 0.05 0.09 0.12 0.13 0.11 0.11 0.16 0.10 0.08 0.09 0.11 0.11 0.08 0.04 0.02 0.02 0.02 0.02 0.03 0.03 0.04 0.06 0.10 0.10
0.01 0.01 0.01 0.01 0.01 0.01 0.01 0.01 0.02 0.02 0.02 0.02 0.02 0.03 0.03 0.05 0.11 0.12 0.14 0.14 0.16 0.16 0.17 0.16 0.13 0.09 0.07 0.07 0.07 0.04 0.03 0.03 0.05 0.05 0.04 0.04 0.05 0.05 0.06 0.04 0.03 0.03 0.05
0.00 0.00 0.00 0.00 0.00 0.00 0.00 0.00 0.00 0.00 0.00 0.01 0.02 0.03 0.05 0.08 0.16 0.22 0.16 0.13 0.13 0.13 0.13 0.10 0.09 0.07 0.06 0.09 0.05 0.03 0.02 0.03 0.04 0.05 0.06 0.05 0.04 0.04 0.02 0.01 0.01 0.01 0.01
0.00 0.00 0.00 0.00 0.00 0.00 0.00 0.00 0.00 0.01 0.02 0.03 0.06 0.10 0.14 0.16 0.17 0.16 0.13 0.12 0.12 0.09 0.07 0.06 0.04 0.04 0.05 0.06 0.07 0.06 0.05 0.04 0.04 0.05 0.05 0.04 0.03 0.02 0.01 0.01 0.01 0.00 0.00
0.00 0.00 0.00 0.00 0.00 0.00 0.01 0.02 0.03 0.08 0.09 0.11 0.15 0.16 0.16 0.16 0.16 0.11 0.08 0.05 0.04 0.03 0.03 0.05 0.06 0.06 0.07 0.07 0.06 0.06 0.06 0.05 0.05 0.05 0.03 0.02 0.01 0.01 0.00 0.00 0.00 0.00 0.00
0.00 0.00 0.00 0.00 0.00 0.01 0.01 0.05 0.08 0.09 0.09 0.09 0.09 0.08 0.09 0.10 0.08 0.06 0.05 0.06 0.07 0.05 0.03 0.04 0.04 0.03 0.04 0.05 0.06 0.06 0.04 0.04 0.03 0.01 0.01 0.01 0.00 0.00 0.00 0.00 0.00 0.00 0.01
0.02 0.03 0.03 0.02 0.01 0.01 0.01 0.01 0.04 0.04 0.02 0.03 0.03 0.03 0.03 0.05 0.05 0.05 0.03 0.03 0.03 0.03 0.04 0.04 0.04 0.05 0.05 0.05 0.05 0.03 0.02 0.02 0.01 0.00 0.00 0.01 0.01 0.00 0.01 0.01 0.00 0.01 0.01
0.07 0.03 0.01 0.01 0.00 0.00 0.01 0.01 0.01 0.01 0.02 0.02 0.03 0.04 0.06 0.04 0.03 0.02 0.01 0.01 0.01 0.02 0.04 0.05 0.05 0.04 0.03 0.02 0.01 0.01 0.01 0.01 0.01 0.01 0.01 0.01 0.01 0.02 0.01 0.01 0.01 0.01 0.01
0.04 0.01 0.00 0.00 0.00 0.00 0.00 0.00 0.00 0.00 0.00 0.01 0.01 0.01 0.02 0.02 0.01 0.01 0.00 0.00 0.00 0.01 0.00 0.01 0.01 0.01 0.01 0.01 0.01 0.01 0.01 0.01 0.01 0.01 0.01 0.01 0.01 0.02 0.02 0.01 0.01 0.01 0.01
0.00 0.00 0.00 0.00 0.00 0.00 0.00 0.00 0.00 0.00 0.00 0.00 0.00 0.00 0.00 0.00 0.00 0.00 0.01 0.01 0.01 0.01 0.01 0.00 0.01 0.01 0.01 0.01 0.01 0.01 0.01 0.01 0.01 0.01 0.01 0.01 0.01 0.02 0.02 0.02 0.01 0.02 0.01
0.00 0.00 0.00 0.00 0.00 0.00 0.00 0.00 0.00 0.00 0.00 0.00 0.00 0.01 0.00 0.00 0.00 0.01 0.00 0.00 0.01 0.00 0.01 0.01 0.01 0.01 0.01 0.01 0.01 0.01 0.01 0.01 0.01 0.01 0.01 0.01 0.01 0.01 0.01 0.01 0.02 0.02 0.01
0.00 0.00 0.00 0.00 0.00 0.00 0.00 0.00 0.00 0.00 0.00 0.00 0.00 0.00 0.00 0.00 0.00 0.00 0.00 0.00 0.00 0.00 0.00 0.01 0.01 0.01 0.01 0.00 0.00 0.00 0.00 0.00 0.01 0.01 0.01 0.01 0.01 0.01 0.02 0.02 0.02 0.02 0.01
0.00 0.00 0.00 0.00 0.00 0.00 0.00 0.00 0.00 0.00 0.00 0.00 0.00 0.00 0.00 0.01 0.01 0.01 0.01 0.01 0.00 0.00 0.00 0.00 0.00 0.00 0.00 0.00 0.00 0.00 0.01 0.01 0.01 0.02 0.02 0.02 0.02 0.02 0.02 0.02 0.01 0.02 0.02
0.00 0.00 0.00 0.00 0.00 0.00 0.00 0.00 0.00 0.00 0.00 0.00 0.00 0.00 0.00 0.01 0.01 0.00 0.01 0.00 0.00 0.00 0.00 0.00 0.00 0.00 0.00 0.00 0.00 0.00 0.00 0.01 0.02 0.02 0.02 0.03 0.02 0.01 0.02 0.02 0.02 0.02 0.02
0.00 0.00 0.00 0.00 0.00 0.00 0.00 0.00 0.00 0.00 0.00 0.00 0.00 0.00 0.00 0.00 0.00 0.01 0.00 0.00 0.00 0.00 0.00 0.00 0.00 0.00 0.00 0.00 0.00 0.00 0.01 0.01 0.01 0.02 0.02 0.02 0.02 0.02 0.02 0.02 0.02 0.02 0.02
0.00 0.00 0.00 0.00 0.00 0.00 0.00 0.00 0.00 0.00 0.00 0.00 0.00 0.00 0.00 0.00 0.00 0.00 0.00 0.00 0.00 0.00 0.00 0.00 0.00 0.00 0.00 0.00 0.00 0.01 0.01 0.01 0.01 0.02 0.02 0.02 0.02 0.02 0.02 0.02 0.02 0.02 0.02